Location: Aalen
(48.8330°N, 10.1000°E)
Time: 20:07:34
(UTC+02:00)

S-56A Canister/Altair - Pass Details

Date: 05 August 2021
Orbit: 632 x 2500 km, 38.9° (Epoch: 19 September)

Event Time Altitude Azimuth Distance (km) Brightness Sun altitude
Rises 14:54:34 0° 228° (SW) 5,038 12.3 53.2°
Reaches altitude 10° 14:57:44 10° 222° (SW) 4,277 12.2 52.9°
Maximum altitude 15:09:01 45° 155° (SSE) 2,932 11.3 51.7°
Drops below altitude 10° 15:22:44 10° 91° (E) 5,168 11.6 50.1°
Sets 15:26:59 0° 86° (E) 6,149 11.8 49.6°
